Zurück zum Katalog

CZ-6A DEB

AktivPO
NORAD 61110·DEBRIS·🇨🇳 China

Gestartet Aug 6, 2024 von Taiyuan Satellite Launch Center

Loading…

Nächste Überflüge (nächste 24 Stunden)

TLE

AktuellSource: Space-Track

Epoche: Sep 14, 2026, 01:01 UTC

1 61110U 24140PC  26257.04280231  .00001001  00000-0  54265-3 0  9999
2 61110  89.0350 270.0065 0117698 334.4400  25.0992 14.08306630104122

Verfolge CZ-6A DEB in Echtzeit mit AllMySat

Download on the App Store